ON7HN-2 Weather Reports


Display with metric or nautical units.
time (UTC)temp
F
wind
direction
speed
MPH
gust
MPH
rain 1hr
in
rain 24hr
in
rain mn
in
humidity
%
barometer
mb
20260506175006 54 302 4.0 5.0 0.00 0.00 0.00 78 1009.7
20260506174505 54 345 10.0 12.0 0.00 0.00 0.00 76 1009.7
20260506174005 54 329 7.0 9.0 0.00 0.00 0.00 78 1009.5
20260506173505 54 326 10.0 12.0 0.00 0.00 0.00 77 1009.6
20260506173006 54 332 11.0 14.0 0.00 0.00 0.00 77 1009.7
20260506172506 55 347 9.0 11.0 0.00 0.00 0.00 75 1009.5
20260506172005 55 14 6.0 9.0 0.00 0.00 0.00 75 1009.4
20260506171505 55 343 8.0 10.0 0.00 0.00 0.00 75 1009.2
20260506171006 55 42 9.0 10.0 0.00 0.00 0.00 73 1009.2
20260506170506 55 330 10.0 14.0 0.00 0.00 0.00 73 1009.2
20260506170006 56 327 6.0 8.0 0.00 0.00 0.00 72 1009.1
20260506165505 56 334 7.0 10.0 0.00 0.00 0.00 73 1009.2
20260506165005 56 335 9.0 10.0 0.00 0.00 0.00 70 1009.1
20260506164505 56 344 7.0 8.0 0.00 0.00 0.00 71 1009.1
20260506164005 56 23 7.0 10.0 0.00 0.00 0.00 69 1009.0
20260506163505 56 359 9.0 11.0 0.00 0.00 0.00 71 1009.1
20260506163005 56 329 7.0 9.0 0.00 0.00 0.00 71 1008.9
20260506162506 55 341 10.0 12.0 0.00 0.00 0.00 72 1009.0
20260506162005 56 337 10.0 13.0 0.00 0.00 0.00 72 1008.9
20260506161506 56 333 11.0 12.0 0.00 0.00 0.00 71 1008.9
20260506161010 56 343 10.0 11.0 0.00 0.00 0.00 73 1008.9
20260506160510 56 332 6.0 8.0 0.00 0.00 0.00 74 1008.9
20260506160005 56 332 8.0 10.0 0.00 0.00 0.00 73 1008.9
20260506155505 56 325 9.0 11.0 0.00 0.00 0.00 74 1008.8
20260506155005 57 11 7.0 11.0 0.00 0.00 0.00 73 1008.9
20260506154505 57 330 12.0 13.0 0.00 0.00 0.00 73 1008.8
20260506154006 57 345 7.0 10.0 0.00 0.00 0.00 73 1009.0
20260506153506 57 9 7.0 10.0 0.00 0.00 0.00 72 1008.9
20260506153006 58 332 5.0 6.0 0.00 0.00 0.00 72 1008.9
20260506152506 57 333 9.0 10.0 0.00 0.00 0.00 74 1008.9
20260506152011 56 330 8.0 10.0 0.00 0.00 0.00 73 1008.9
20260506151511 57 0 8.0 9.0 0.00 0.00 0.00 73 1008.8
20260506151011 57 332 10.0 11.0 0.00 0.00 0.00 73 1008.9
20260506150506 57 4 10.0 13.0 0.00 0.00 0.00 72 1008.8
20260506150006 57 329 9.0 10.0 0.00 0.00 0.00 71 1008.7
20260506145506 57 324 12.0 12.0 0.00 0.00 0.00 71 1008.9
20260506145005 58 327 8.0 9.0 0.00 0.00 0.00 72 1008.9
20260506144505 58 311 9.0 11.0 0.00 0.00 0.00 72 1008.8
20260506144006 58 351 9.0 11.0 0.00 0.00 0.00 71 1008.9
20260506143505 57 6 8.0 10.0 0.00 0.00 0.00 74 1008.6
20260506143005 57 305 9.0 10.0 0.00 0.00 0.00 73 1008.9
20260506142505 57 353 5.0 6.0 0.00 0.00 0.00 73 1008.9
20260506142005 57 332 7.0 9.0 0.00 0.00 0.00 72 1008.7
20260506141505 56 357 8.0 11.0 0.00 0.00 0.00 72 1008.9
20260506141010 56 329 10.0 12.0 0.00 0.00 0.00 73 1008.7
20260506140510 56 334 9.0 10.0 0.00 0.00 0.00 73 1008.8
20260506140005 56 323 8.0 11.0 0.00 0.00 0.00 73 1008.8
20260506135505 56 332 5.0 6.0 0.00 0.00 0.00 74 1008.9
20260506135005 56 358 8.0 11.0 0.00 0.00 0.00 74 1008.9
20260506134505 56 333 8.0 9.0 0.00 0.00 0.00 73 1008.9
20260506134005 56 2 6.0 8.0 0.00 0.00 0.00 74 1008.9
20260506133506 56 323 7.0 10.0 0.00 0.00 0.00 74 1008.9
20260506133005 56 354 8.0 10.0 0.00 0.00 0.00 75 1008.9
20260506132505 56 330 6.0 8.0 0.00 0.00 0.00 74 1009.0
20260506132005 56 351 6.0 8.0 0.00 0.00 0.00 76 1008.9
20260506131505 56 332 6.0 9.0 0.00 0.00 0.00 77 1008.9
20260506131005 55 343 7.0 9.0 0.00 0.00 0.00 77 1008.7
20260506130505 55 24 8.0 9.0 0.00 0.00 0.00 77 1008.9
20260506130005 55 15 5.0 6.0 0.00 0.00 0.00 78 1008.8
20260506125510 55 343 7.0 9.0 0.00 0.00 0.00 78 1008.8
20260506125011 55 286 5.0 6.0 0.00 0.00 0.00 79 1008.7
20260506124506 55 325 10.0 12.0 0.00 0.00 0.00 79 1008.7
20260506124010 55 312 7.0 8.0 0.00 0.00 0.00 78 1008.9
20260506123506 55 329 7.0 9.0 0.00 0.00 0.00 78 1008.8
20260506123005 55 323 10.0 12.0 0.00 0.00 0.00 77 1008.7
20260506122510 55 317 6.0 8.0 0.00 0.00 0.00 80 1008.9
20260506122005 55 354 6.0 8.0 0.00 0.00 0.00 79 1008.9
20260506121505 55 0 6.0 8.0 0.00 0.00 0.00 79 1008.8
20260506121005 55 11 7.0 9.0 0.00 0.00 0.00 79 1008.7
20260506120505 55 337 7.0 9.0 0.00 0.00 0.00 79 1008.8
20260506120005 55 347 7.0 8.0 0.00 0.00 0.00 81 1008.8
20260506115505 55 340 6.0 8.0 0.00 0.00 0.00 80 1008.8
20260506115005 54 20 5.0 8.0 0.00 0.00 0.00 81 1008.8
20260506114505 54 322 5.0 5.0 0.00 0.00 0.00 80 1008.9
20260506114005 54 327 7.0 8.0 0.00 0.00 0.00 79 1008.7
20260506113506 54 356 6.0 9.0 0.00 0.00 0.00 78 1008.9
20260506113006 54 335 6.0 8.0 0.00 0.00 0.00 80 1008.9
20260506112506 54 318 8.0 11.0 0.00 0.00 0.00 78 1008.8
20260506112005 55 343 6.0 8.0 0.00 0.00 0.00 79 1008.7
20260506111506 55 337 7.0 9.0 0.00 0.00 0.00 78 1008.9
20260506111006 54 33 4.0 4.0 0.00 0.00 0.00 78 1008.9
20260506110506 54 339 8.0 9.0 0.00 0.00 0.00 83 1008.7
20260506110006 54 13 5.0 6.0 0.00 0.00 0.00 84 1008.7
20260506105506 54 346 8.0 9.0 0.00 0.00 0.00 83 1008.8
20260506105006 54 328 6.0 9.0 0.00 0.00 0.00 84 1008.8
20260506104506 53 338 5.0 6.0 0.00 0.00 0.00 84 1008.8
20260506104006 53 351 3.0 4.0 0.00 0.00 0.00 86 1008.9
20260506103510 52 327 6.0 8.0 0.00 0.00 0.00 86 1008.8
20260506103005 53 23 6.0 6.0 0.00 0.00 0.00 86 1008.9
20260506102510 52 353 5.0 6.0 0.00 0.00 0.00 86 1008.9
20260506102005 52 348 6.0 9.0 0.00 0.00 0.00 87 1008.9
20260506101505 52 346 4.0 5.0 0.00 0.00 0.00 87 1009.1
20260506101005 51 34 5.0 6.0 0.00 0.00 0.00 88 1008.7
20260506100505 50 324 8.0 10.0 0.00 0.00 0.00 88 1008.8
20260506100010 50 334 4.0 5.0 0.00 0.00 0.00 89 1008.8
20260506095505 50 353 4.0 5.0 0.00 0.00 0.00 89 1008.8
20260506095010 50 338 9.0 11.0 0.00 0.00 0.00 88 1008.9
20260506094506 50 337 8.0 10.0 0.00 0.00 0.00 87 1008.7
20260506094005 50 64 6.0 9.0 0.00 0.00 0.00 86 1008.8
20260506093506 50 357 7.0 8.0 0.00 0.00 0.00 86 1009.0
20260506093005 51 359 6.0 8.0 0.00 0.00 0.00 85 1008.8
20260506092505 51 20 6.0 9.0 0.00 0.00 0.00 85 1008.9
20260506092006 51 307 8.0 9.0 0.00 0.00 0.00 84 1008.7
20260506091505 51 348 4.0 5.0 0.00 0.00 0.00 85 1008.8
20260506091005 51 357 6.0 9.0 0.00 0.00 0.00 84 1008.6
20260506090506 51 335 7.0 10.0 0.00 0.00 0.00 85 1008.4
20260506090006 51 0 6.0 6.0 0.00 0.00 0.00 84 1008.6
20260506085510 51 13 7.0 10.0 0.00 0.00 0.00 85 1008.6
20260506085005 51 346 11.0 13.0 0.00 0.00 0.00 85 1008.7
20260506084505 51 18 8.0 10.0 0.00 0.00 0.00 86 1008.5
20260506084005 50 33 4.0 5.0 0.00 0.00 0.00 86 1008.6
20260506083511 50 40 5.0 6.0 0.00 0.00 0.00 86 1008.4
20260506083011 51 4 5.0 6.0 0.00 0.00 0.00 86 1008.4
20260506082510 51 358 4.0 4.0 0.00 0.00 0.00 86 1008.4
20260506082011 50 41 8.0 11.0 0.00 0.00 0.00 86 1008.4
20260506081505 50 11 8.0 9.0 0.00 0.00 0.00 86 1008.2
20260506081005 51 9 6.0 8.0 0.00 0.00 0.00 86 1008.3
20260506080510 51 7 4.0 5.0 0.00 0.00 0.00 85 1008.1
20260506073510 51 31 9.0 10.0 0.00 0.00 0.00 84 1008.2
20260506073006 51 340 11.0 12.0 0.00 0.00 0.00 84 1007.9
20260506072505 51 354 10.0 13.0 0.00 0.00 0.00 84 1008.0
20260506072005 51 326 10.0 11.0 0.00 0.00 0.00 84 1008.0
20260506071505 51 21 6.0 8.0 0.00 0.00 0.00 84 1007.9
20260506071005 51 314 12.0 14.0 0.00 0.00 0.00 85 1007.9
20260506070505 50 337 5.0 6.0 0.00 0.00 0.00 86 1008.0
20260506062505 49 342 4.0 6.0 0.00 0.00 0.00 87 1007.8
20260506062005 48 349 4.0 5.0 0.00 0.00 0.00 88 1007.9
20260506061506 48 340 4.0 4.0 0.00 0.00 0.00 88 1007.9
20260506061006 48 330 3.0 4.0 0.00 0.00 0.00 88 1007.6
20260506060506 48 356 4.0 4.0 0.00 0.00 0.00 88 1007.8
20260506051005 47 97 4.0 5.0 0.00 0.00 0.00 87 1007.8
20260506050505 47 344 5.0 6.0 0.00 0.00 0.00 86 1007.8
20260506045006 47 25 4.0 5.0 0.00 0.00 0.00 86 1007.6
20260506044506 47 342 2.0 3.0 0.00 0.00 0.00 86 1007.7
20260506044006 47 14 4.0 5.0 0.00 0.00 0.00 86 1007.7
20260506043505 47 339 6.0 8.0 0.00 0.00 0.00 86 1007.8
20260506043011 47 346 4.0 6.0 0.00 0.00 0.00 86 1007.7
20260506042505 47 351 3.0 4.0 0.00 0.00 0.00 86 1007.7
20260506042005 47 359 6.0 8.0 0.00 0.00 0.00 86 1007.7
20260506041505 47 357 5.0 6.0 0.00 0.00 0.00 86 1007.6
20260506041006 47 347 8.0 9.0 0.00 0.00 0.00 86 1007.6
20260506040505 47 351 3.0 3.0 0.00 0.00 0.00 86 1007.7
20260506040011 47 332 6.0 8.0 0.00 0.00 0.00 86 1007.7
20260506035506 47 26 3.0 4.0 0.00 0.00 0.00 86 1007.9
20260506035005 47 338 4.0 4.0 0.00 0.00 0.00 86 1007.8
20260506034506 47 353 3.0 4.0 0.00 0.00 0.00 86 1007.7
20260506034005 47 4 4.0 5.0 0.00 0.00 0.00 86 1007.9
20260506033510 47 307 6.0 10.0 0.00 0.00 0.00 86 1007.8
20260506033005 47 11 5.0 6.0 0.00 0.00 0.00 86 1008.2
20260506032505 47 353 5.0 6.0 0.00 0.00 0.00 86 1008.0
20260506032005 47 280 4.0 5.0 0.00 0.00 0.00 86 1007.8
20260506031505 47 16 4.0 6.0 0.00 0.00 0.00 86 1008.0
20260506031010 47 308 4.0 6.0 0.00 0.00 0.00 86 1008.1
20260506030505 47 17 5.0 6.0 0.00 0.00 0.00 86 1008.0
20260506030005 47 356 5.0 6.0 0.00 0.00 0.00 86 1008.0
20260506025505 47 346 6.0 8.0 0.00 0.00 0.00 86 1008.1
20260506025005 47 344 4.0 5.0 0.00 0.00 0.00 86 1008.1
20260506024505 47 350 3.0 4.0 0.00 0.00 0.00 86 1008.1
20260506024005 47 338 3.0 4.0 0.00 0.00 0.00 85 1008.1
20260506023505 47 329 5.0 6.0 0.00 0.00 0.00 85 1008.0
20260506023005 47 349 3.0 3.0 0.00 0.00 0.00 85 1008.0
20260506022505 47 353 4.0 4.0 0.00 0.00 0.00 85 1008.1
20260506022005 47 341 5.0 6.0 0.00 0.00 0.00 85 1007.9
20260506021505 47 351 5.0 6.0 0.00 0.00 0.00 85 1008.2
20260506021005 47 344 4.0 5.0 0.00 0.00 0.00 85 1008.2
20260506020505 47 356 4.0 4.0 0.00 0.00 0.00 85 1008.2
20260506020005 47 339 4.0 5.0 0.00 0.00 0.00 85 1008.3
20260506015505 47 41 4.0 5.0 0.00 0.00 0.00 85 1008.1
20260506015005 48 325 3.0 3.0 0.00 0.00 0.00 85 1008.2
20260506014510 48 344 4.0 4.0 0.00 0.00 0.00 86 1008.0
20260506014010 48 5 2.0 3.0 0.00 0.00 0.00 85 1008.1
20260506013505 48 2 4.0 5.0 0.00 0.00 0.00 85 1008.0
20260506013005 48 340 4.0 6.0 0.00 0.00 0.00 85 1008.0
20260506012506 48 342 4.0 5.0 0.00 0.00 0.00 85 1008.2
20260506012005 48 346 6.0 8.0 0.00 0.00 0.00 86 1008.2
20260506011505 48 5 6.0 8.0 0.00 0.00 0.00 86 1008.0
20260506011005 48 336 4.0 5.0 0.00 0.00 0.00 86 1008.2
20260506010505 48 10 6.0 8.0 0.00 0.00 0.00 87 1008.1
20260506010005 48 348 5.0 6.0 0.00 0.00 0.00 88 1008.3
20260506005505 48 354 3.0 4.0 0.00 0.00 0.00 88 1008.1
20260506005006 48 27 5.0 5.0 0.00 0.00 0.00 87 1008.1
20260506004505 48 2 5.0 6.0 0.00 0.00 0.00 87 1008.2
20260506004005 48 353 4.0 5.0 0.00 0.00 0.00 87 1008.3
20260506003511 48 58 4.0 5.0 0.00 0.00 0.00 87 1008.4
20260506003006 49 333 5.0 5.0 0.00 0.00 0.00 87 1008.7
20260506002505 49 306 5.0 6.0 0.00 0.00 0.00 87 1008.7
20260506002006 49 332 5.0 6.0 0.00 0.00 0.00 87 1008.4
20260506001511 49 41 5.0 8.0 0.00 0.00 0.00 87 1008.4
20260506001005 49 14 4.0 5.0 0.00 0.00 0.00 87 1008.4
20260506000510 49 334 7.0 9.0 0.00 0.00 0.00 87 1008.3
20260506000005 49 353 6.0 6.0 0.00 0.00 0.00 87 1008.6
20260505235506 49 353 6.0 8.0 0.00 0.00 0.00 88 1008.5
20260505235005 49 14 5.0 5.0 0.00 0.00 0.00 88 1008.6
20260505234505 49 346 6.0 8.0 0.00 0.00 0.00 87 1008.4
20260505234005 49 354 5.0 6.0 0.00 0.00 0.00 87 1008.5
20260505233505 49 349 7.0 9.0 0.00 0.00 0.00 87 1008.6
20260505233010 49 342 6.0 9.0 0.00 0.00 0.00 87 1008.7
20260505232510 49 345 5.0 6.0 0.00 0.00 0.00 87 1008.4
20260505232005 49 354 4.0 5.0 0.00 0.00 0.00 87 1008.3
20260505231505 50 352 4.0 5.0 0.00 0.00 0.00 87 1008.5
20260505231005 50 339 4.0 5.0 0.00 0.00 0.00 87 1008.7
20260505230505 50 344 7.0 8.0 0.00 0.00 0.00 87 1008.4
20260505230005 50 13 5.0 8.0 0.00 0.00 0.00 87 1008.6
20260505225510 50 343 3.0 4.0 0.00 0.00 0.00 87 1008.7
20260505225005 50 351 4.0 5.0 0.00 0.00 0.00 87 1008.6
20260505224505 50 346 5.0 5.0 0.00 0.00 0.00 86 1008.8
20260505224010 50 1 4.0 4.0 0.00 0.00 0.00 86 1008.7
20260505223505 50 301 4.0 5.0 0.00 0.00 0.00 86 1008.7
20260505223005 50 345 6.0 8.0 0.00 0.00 0.00 86 1008.8
20260505222506 50 4 4.0 6.0 0.00 0.00 0.00 86 1008.7
20260505222005 50 27 3.0 4.0 0.00 0.00 0.00 86 1008.6
20260505221505 50 18 4.0 5.0 0.00 0.00 0.00 85 1008.7
20260505221005 50 1 4.0 5.0 0.00 0.00 0.00 85 1008.7
20260505220505 50 353 3.0 3.0 0.00 0.00 0.00 85 1008.9
20260505220005 50 341 3.0 3.0 0.00 0.00 0.00 85 1008.7
20260505215505 50 15 3.0 4.0 0.00 0.00 0.00 84 1008.9
20260505215010 50 12 3.0 4.0 0.00 0.00 0.00 84 1008.8
20260505214505 50 349 4.0 6.0 0.00 0.00 0.00 84 1008.7
20260505214005 51 18 4.0 4.0 0.00 0.00 0.00 84 1008.7
20260505213506 51 338 6.0 6.0 0.00 0.00 0.00 84 1008.7
20260505213006 51 11 3.0 3.0 0.00 0.00 0.00 84 1008.8
20260505212505 51 357 5.0 6.0 0.00 0.00 0.00 84 1008.7
20260505212005 51 14 4.0 4.0 0.00 0.00 0.00 84 1008.8
20260505211510 51 9 5.0 8.0 0.00 0.00 0.00 84 1008.6
20260505211005 51 353 3.0 4.0 0.00 0.00 0.00 84 1008.6
20260505210505 51 13 7.0 8.0 0.00 0.00 0.00 83 1008.8
20260505210006 51 25 5.0 6.0 0.00 0.00 0.00 84 1008.7
20260505205506 51 11 9.0 12.0 0.00 0.00 0.00 83 1008.6
20260505205005 51 338 7.0 9.0 0.00 0.00 0.00 83 1008.8
20260505204511 51 1 8.0 9.0 0.00 0.00 0.00 83 1008.6
20260505204006 52 47 4.0 6.0 0.00 0.00 0.00 82 1008.8
20260505203505 52 19 3.0 3.0 0.00 0.00 0.00 83 1008.6
20260505203005 52 359 5.0 5.0 0.00 0.00 0.00 83 1008.6
20260505202505 52 68 4.0 5.0 0.00 0.00 0.00 82 1008.7
20260505202006 52 18 8.0 9.0 0.00 0.00 0.00 81 1008.5
20260505201505 52 349 6.0 6.0 0.00 0.00 0.00 81 1008.7
20260505201005 52 354 8.0 11.0 0.00 0.00 0.00 81 1008.6
20260505200506 52 9 3.0 4.0 0.00 0.00 0.00 81 1008.8
20260505200005 52 355 8.0 9.0 0.00 0.00 0.00 80 1008.3
20260505195506 52 20 7.0 10.0 0.00 0.00 0.00 80 1008.5
20260505195006 52 20 5.0 6.0 0.00 0.00 0.00 80 1008.3
20260505194505 53 357 8.0 9.0 0.00 0.00 0.00 80 1008.3
20260505194005 53 6 6.0 6.0 0.00 0.00 0.00 80 1008.0
20260505193506 53 341 5.0 6.0 0.00 0.00 0.00 79 1008.1
20260505193005 53 39 6.0 9.0 0.00 0.00 0.00 79 1008.2
20260505192505 53 293 4.0 4.0 0.00 0.00 0.00 79 1008.1
20260505192005 53 357 7.0 9.0 0.00 0.00 0.00 78 1008.1
20260505191506 54 34 5.0 6.0 0.00 0.00 0.00 78 1008.1
20260505191006 54 2 7.0 10.0 0.00 0.00 0.00 78 1007.8
20260505190506 54 354 6.0 8.0 0.00 0.00 0.00 78 1007.9
20260505190011 54 0 4.0 4.0 0.00 0.00 0.00 79 1007.9
20260505185506 54 351 9.0 11.0 0.00 0.00 0.00 77 1007.7
20260505185006 54 355 8.0 10.0 0.00 0.00 0.00 78 1007.9
20260505184510 54 23 6.0 9.0 0.00 0.00 0.00 77 1008.0
20260505184010 54 22 7.0 11.0 0.00 0.00 0.00 78 1008.1
20260505183505 54 338 9.0 12.0 0.00 0.00 0.00 77 1007.7
20260505183010 55 9 7.0 9.0 0.00 0.00 0.00 77 1007.8
20260505182505 55 353 7.0 9.0 0.00 0.00 0.00 77 1007.8
20260505182010 55 343 8.0 10.0 0.00 0.00 0.00 77 1007.7
20260505181505 55 1 7.0 9.0 0.00 0.00 0.00 76 1007.8
20260505181010 55 348 7.0 9.0 0.00 0.00 0.00 76 1007.9
20260505180505 55 316 7.0 9.0 0.00 0.00 0.00 76 1007.9
20260505180011 56 13 9.0 11.0 0.00 0.00 0.00 75 1007.7
20260505175505 56 6 6.0 8.0 0.00 0.00 0.00 76 1008.0